CW3319 Weather Reports


time (UTC)temp
C
wind
direction
speed
KPH
gust
KPH
rain 1hr
cm
rain 24hr
cm
rain mn
cm
humidity
%
barometer
mb
20260503010902 16 234 3.2 4.8 0.00 0.00 0.00 43 1009.2
20260503005902 16 263 3.2 3.2 0.00 0.00 0.00 46 1009.2
20260503004902 17 258 1.6 4.8 0.00 0.00 0.00 45 1009.4
20260503003902 17 262 3.2 6.4 0.00 0.00 0.00 42 1009.4
20260503002932 17 262 8.0 12.9 0.00 0.00 0.00 42 1009.5
20260503001902 17 277 11.3 14.5 0.00 0.00 0.00 44 1009.6
20260503000932 17 260 4.8 6.4 0.00 0.00 0.00 40 1009.4
20260502235902 17 238 4.8 8.0 0.00 0.00 0.00 41 1009.3
20260502234902 17 176 1.6 4.8 0.00 0.00 0.00 40 1009.5
20260502233902 17 237 0.0 0.0 0.00 0.00 0.00 40 1009.7
20260502232902 17 227 0.0 1.6 0.00 0.00 0.00 40 1009.7
20260502231902 17 213 1.6 3.2 0.00 0.00 0.00 38 1009.8
20260502230902 17 223 3.2 4.8 0.00 0.00 0.00 38 1009.9
20260502225902 17 259 1.6 3.2 0.00 0.00 0.00 40 1010.0
20260502224932 17 263 3.2 4.8 0.00 0.00 0.00 40 1010.2
20260502223902 17 271 3.2 3.2 0.00 0.00 0.00 39 1010.2
20260502222902 17 264 4.8 8.0 0.00 0.00 0.00 36 1010.2
20260502221902 17 255 1.6 3.2 0.00 0.00 0.00 38 1010.4
20260502220902 17 255 4.8 4.8 0.00 0.00 0.00 38 1010.5
20260502215902 17 268 3.2 4.8 0.00 0.00 0.00 37 1010.6
20260502214902 17 258 1.6 3.2 0.00 0.00 0.00 36 1010.7
20260502213902 17 236 4.8 6.4 0.00 0.00 0.00 37 1010.9
20260502212902 17 290 3.2 4.8 0.00 0.00 0.00 36 1011.0
20260502211902 18 263 3.2 4.8 0.00 0.00 0.00 36 1011.2
20260502210902 18 263 6.4 12.9 0.00 0.00 0.00 35 1011.5
20260502205902 18 261 4.8 6.4 0.00 0.00 0.00 37 1011.7
20260502204932 17 247 3.2 4.8 0.00 0.00 0.00 36 1011.8
20260502203902 17 236 3.2 6.4 0.00 0.00 0.00 36 1012.0
20260502202902 17 252 6.4 11.3 0.00 0.00 0.00 35 1012.3
20260502201902 17 252 3.2 4.8 0.00 0.00 0.00 34 1012.6
20260502200902 17 280 3.2 3.2 0.00 0.00 0.00 36 1012.7
20260502195902 17 274 6.4 9.7 0.00 0.00 0.00 36 1012.8
20260502195002 17 259 8.0 12.9 0.00 0.00 0.00 39 1013.1
20260502193902 17 246 4.8 6.4 0.00 0.00 0.00 37 1013.3
20260502192902 16 262 4.8 6.4 0.00 0.00 0.00 39 1013.5
20260502191933 16 260 4.8 6.4 0.00 0.00 0.00 35 1013.7
20260502190901 16 265 3.2 4.8 0.00 0.00 0.00 37 1013.8
20260502185902 16 284 8.0 12.9 0.00 0.00 0.00 38 1014.0
20260502184902 16 230 6.4 8.0 0.00 0.00 0.00 38 1014.2
20260502183902 16 257 4.8 4.8 0.00 0.00 0.00 36 1014.5
20260502182902 16 267 6.4 9.7 0.00 0.00 0.00 39 1014.6
20260502181902 15 238 3.2 6.4 0.00 0.00 0.00 38 1014.7
20260502180902 15 270 6.4 9.7 0.00 0.00 0.00 39 1014.9
20260502163932 13 283 3.2 4.8 0.00 0.00 0.00 44 1016.2
20260502162902 13 241 1.6 3.2 0.00 0.00 0.00 46 1016.4
20260502161902 13 303 3.2 4.8 0.00 0.00 0.00 41 1016.4
20260502160902 13 274 3.2 4.8 0.00 0.00 0.00 43 1016.5
20260502151902 11 273 4.8 6.4 0.00 0.00 0.00 49 1017.0
20260502150932 11 270 3.2 4.8 0.00 0.00 0.00 47 1017.1
20260502122933 5 271 3.2 3.2 0.00 0.00 0.00 70 1017.4
20260502121902 5 254 3.2 4.8 0.00 0.00 0.00 71 1017.4
20260502120902 5 262 1.6 3.2 0.00 0.00 0.00 71 1017.4
20260502115903 5 279 1.6 3.2 0.00 0.00 0.00 69 1017.4
20260502114901 5 277 0.0 0.0 0.00 0.00 0.00 69 1017.3
20260502113903 5 271 0.0 0.0 0.00 0.00 0.00 69 1017.3
20260502112902 5 269 0.0 0.0 0.00 0.00 0.00 69 1017.2
20260502111932 5 269 0.0 0.0 0.00 0.00 0.00 70 1017.2
20260502110903 5 269 0.0 0.0 0.00 0.00 0.00 69 1017.2
20260502105932 5 269 1.6 1.6 0.00 0.00 0.00 69 1017.1
20260502104932 5 265 1.6 3.2 0.00 0.00 0.00 68 1017.1
20260502103902 5 270 1.6 3.2 0.00 0.00 0.00 68 1017.1
20260502102902 5 271 1.6 3.2 0.00 0.00 0.00 68 1017.1
20260502101902 5 275 1.6 3.2 0.00 0.00 0.00 67 1017.2
20260502100902 5 273 1.6 3.2 0.00 0.00 0.00 67 1017.1
20260502090932 5 267 3.2 3.2 0.00 0.00 0.00 64 1017.1
20260502070902 5 241 0.0 0.0 0.00 0.00 0.00 67 1017.5
20260502065902 5 241 0.0 0.0 0.00 0.00 0.00 69 1017.5
20260502064902 4 241 0.0 0.0 0.00 0.00 0.00 67 1017.6
20260502063902 4 232 0.0 0.0 0.00 0.00 0.00 66 1017.6
20260502062902 5 266 0.0 0.0 0.00 0.00 0.00 68 1017.6
20260502061902 5 273 0.0 0.0 0.00 0.00 0.00 66 1017.6
20260502060932 5 273 0.0 0.0 0.00 0.00 0.00 67 1017.6
20260502055902 5 273 1.6 3.2 0.00 0.00 0.00 67 1017.6
20260502054902 5 273 0.0 3.2 0.00 0.00 0.00 65 1017.7
20260502053902 5 273 0.0 0.0 0.00 0.00 0.00 63 1017.7
20260502052932 5 273 0.0 0.0 0.00 0.00 0.00 64 1017.7
20260502051902 5 273 0.0 0.0 0.00 0.00 0.00 64 1017.7
20260502050902 5 5 1.6 1.6 0.00 0.00 0.00 61 1017.6
20260502045902 5 5 0.0 0.0 0.00 0.00 0.00 59 1017.6
20260502044903 5 5 0.0 0.0 0.00 0.00 0.00 59 1017.6
20260502043902 5 5 0.0 0.0 0.00 0.00 0.00 59 1017.5
20260502042901 5 5 0.0 0.0 0.00 0.00 0.00 57 1017.5
20260502041902 5 5 0.0 0.0 0.00 0.00 0.00 60 1017.6
20260502040902 6 11 0.0 0.0 0.00 0.00 0.00 54 1017.6
20260502035902 6 11 0.0 0.0 0.00 0.00 0.00 54 1017.6
20260502034902 6 20 0.0 0.0 0.00 0.00 0.00 53 1017.7
20260502033902 6 20 0.0 0.0 0.00 0.00 0.00 50 1017.6
20260502032902 6 20 0.0 0.0 0.00 0.00 0.00 50 1017.7
20260502031932 6 20 0.0 0.0 0.00 0.00 0.00 48 1017.7
20260502030902 6 20 0.0 0.0 0.00 0.00 0.00 48 1017.6
20260502025902 7 20 0.0 0.0 0.00 0.00 0.00 48 1017.6
20260502024933 7 20 0.0 0.0 0.00 0.00 0.00 47 1017.6
20260502023902 7 20 0.0 0.0 0.00 0.00 0.00 48 1017.6
20260502022901 7 20 0.0 0.0 0.00 0.00 0.00 51 1017.6
20260502021932 7 20 0.0 0.0 0.00 0.00 0.00 49 1017.5
20260502020902 7 20 0.0 0.0 0.00 0.00 0.00 49 1017.5
20260502015903 7 20 0.0 0.0 0.00 0.00 0.00 47 1017.4
20260502014902 8 20 0.0 0.0 0.00 0.00 0.00 45 1017.3
20260502013902 8 20 0.0 0.0 0.00 0.00 0.00 43 1017.2
20260502012902 9 20 0.0 0.0 0.00 0.00 0.00 43 1017.1
20260502011902 9 20 0.0 0.0 0.00 0.00 0.00 42 1017.1